TimeMST,TemperatureF,Dew PointF,Humidity,Sea Level PressureIn,VisibilityMPH,Wind Direction,Wind SpeedMPH,Gust SpeedMPH,PrecipitationIn,Events,Conditions,WindDirDegrees,DateUTC
12:00 AM,-23.8,-29.7,74,30.10,-9999.0,WNW,12.7,-,N/A,,Unknown,300,2013-01-25 07:00:00
1:00 AM,-24.0,-29.9,74,30.11,-9999.0,WNW,10.4,-,N/A,,Unknown,300,2013-01-25 08:00:00
2:00 AM,-24.7,-30.6,74,30.11,-9999.0,West,9.2,-,N/A,,Unknown,280,2013-01-25 09:00:00
3:00 AM,-25.2,-31.4,73,30.11,-9999.0,West,11.5,-,N/A,,Unknown,280,2013-01-25 10:00:00
4:00 AM,-27.0,-33.2,73,30.10,-9999.0,West,9.2,-,N/A,,Unknown,280,2013-01-25 11:00:00
5:00 AM,-28,-34,58,30.10,,WNW,12.7,,,,,290,2013-01-25 12:00:00
5:00 AM,-27.6,-33.9,72,30.10,-9999.0,WNW,12.7,-,N/A,,Unknown,290,2013-01-25 12:00:00
6:00 AM,-27.0,-33.5,71,30.10,-9999.0,WNW,11.5,-,N/A,,Unknown,290,2013-01-25 13:00:00
7:00 AM,-26.9,-33.2,72,30.10,-9999.0,WNW,11.5,-,N/A,,Unknown,290,2013-01-25 14:00:00
8:00 AM,-26.5,-32.8,72,30.09,-9999.0,WNW,16.1,-,N/A,,Unknown,300,2013-01-25 15:00:00
9:00 AM,-26.7,-33.0,72,30.08,-9999.0,WNW,16.1,-,N/A,,Unknown,300,2013-01-25 16:00:00
10:00 AM,-27.2,-33.5,72,30.08,-9999.0,WNW,15.0,-,N/A,,Unknown,300,2013-01-25 17:00:00
11:00 AM,-26,-32,59,30.09,,WNW,17.3,,,,,290,2013-01-25 18:00:00
11:00 AM,-25.8,-31.9,73,30.09,-9999.0,WNW,17.3,-,N/A,,Unknown,290,2013-01-25 18:00:00
12:00 PM,-28.3,-34.6,72,30.08,-9999.0,WNW,10.4,-,N/A,,Unknown,290,2013-01-25 19:00:00
1:00 PM,-27.8,-34.2,71,30.08,-9999.0,West,12.7,-,N/A,,Unknown,270,2013-01-25 20:00:00
2:00 PM,-27.0,-33.3,72,30.07,-9999.0,West,15.0,-,N/A,,Unknown,280,2013-01-25 21:00:00
3:00 PM,-25.1,-31.2,73,30.06,-9999.0,West,12.7,-,N/A,,Unknown,280,2013-01-25 22:00:00
4:00 PM,-24.0,-29.9,74,30.04,-9999.0,West,13.8,-,N/A,,Unknown,280,2013-01-25 23:00:00
5:00 PM,-25,-31,59,30.03,,West,11.5,,,,,270,2013-01-26 00:00:00
5:00 PM,-24.9,-31.0,73,30.03,-9999.0,West,11.5,-,N/A,,Unknown,270,2013-01-26 00:00:00
6:00 PM,-23.8,-29.7,74,30.02,-9999.0,West,15.0,-,N/A,,Unknown,280,2013-01-26 01:00:00
7:00 PM,-25.1,-31.2,73,30.01,-9999.0,West,11.5,-,N/A,,Unknown,270,2013-01-26 02:00:00
8:00 PM,-25.2,-31.4,73,30.00,-9999.0,West,11.5,-,N/A,,Unknown,270,2013-01-26 03:00:00
9:00 PM,-25.8,-31.9,73,29.99,-9999.0,West,11.5,-,N/A,,Unknown,270,2013-01-26 04:00:00
10:00 PM,-25.4,-31.5,73,29.99,-9999.0,West,11.5,-,N/A,,Unknown,270,2013-01-26 05:00:00
11:00 PM,-25,-31,57,29.99,,West,13.8,,,,,280,2013-01-26 06:00:00
11:00 PM,-25.2,-31.4,73,29.99,-9999.0,West,13.8,-,N/A,,Unknown,280,2013-01-26 06:00:00